City of Colorado Springs Municipal Airport Colorado Springs US
ICAO: KCOS
IATA: COS
Category: Large
Scheduled Services: Yes

Elevation: 6187 ft
TransAlt. 18000 ft.

Airport Communications:
SPRINGS APP:118.5
ATIS:125
CLNC DEL:134.45
CTAF:124.15
SPRINGS DEP:124
GND:121.7
AFRC OPS:29.84
PMSV PETERSON METRO:34.92
PETERSON PTD:122.85
DENVER RDO:122.25
SPRINGS TWR:119.9
UNICOM:122.95

KCOS Zoom In..

If you have problems with the map follow the link
https://www.worldairports.se/pages/airport.php?
ICAO=KCOS

Runways:

(A) RW 13 length 8269 ft width 150 ft
---- / hdg 126

(B) RW 17L length 13501 ft width 150 ft
ILS 109.10 / hdg 171

(C) RW 17R length 11022 ft width 150 ft
---- / hdg 171

(D) RW 31 length 8269 ft width 150 ft
---- / hdg 306

(E) RW 35L length 11022 ft width 150 ft
ILS 109.90 / hdg 351

(F) RW 35R length 13501 ft width 150 ft
ILS 109.10 / hdg 351

Location; KCOS
Day. 18 / Time. 01.54 Zulu
* Altimeter: 29.90
* Temperature: -04° c. -24.8°f.
* Wind from: 060° Speed 09 kn.
Dewpoint: -09° c.
Visibility: 10 Statute Miles.
Clouds: Few 2000 ft.
Clouds: Overcast 6500 ft.

KCOS 180154Z 06009KT 10SM FEW020 OVC065 M04/M09 A2990 RMK AO2 SLP180 T10391089


Wind From 060°
Speed 09 kn.

 
 
jpsmedia.com for Web Design worldairports.se 2019   terms of use